Hourly Data Report for October 24, 2013

All times are specified in Local Standard Time (LST). Add 1 hour to adjust for Daylight Saving Time where and when it is observed.

FREDERICTON
NEW BRUNSWICK

45°52'08.000" N
66°32'14.000" W
20.70 m
8101505
71700
YFC

Download Data

Hourly Data (October 2013)
Hourly Data Report for October 24, 2013
Temp Definition
°C
Dew Point Temp Definition
°C
Rel Hum Definition
%
Wind Dir Definition
10's deg

Wind Spd Definition
km/h
Visibility Definition
km
Stn Press Definition
kPa
Hmdx Definition


Wind Chill Definition


Weather Definition


TIME
00:00 Legend Double Dagger 3.7 2.5 92 22 5 16.1 99.85     LegendNANA
01:00 Legend Double Dagger 3.2 2.0 92   0 16.1 99.82     LegendNANA
02:00 Legend Double Dagger 3.5 1.9 89 29 5 16.1 99.76     LegendNANA
03:00 Legend Double Dagger 3.1 1.0 86 27 9 16.1 99.74     LegendNANA
04:00 Legend Double Dagger 2.4 0.4 86 27 9 16.1 99.74     LegendNANA
05:00 Legend Double Dagger 1.4 0.1 91 25 8 16.1 99.77     LegendNANA
06:00 Legend Double Dagger -0.4 -0.8 97 23 5 16.1 99.82   -2 LegendNANA
07:00 Legend Double Dagger -1.7 -2.3 96 22 5 16.1 99.88   -4 LegendNANA
08:00 Legend Double Dagger 0.6 -0.4 93 25 5 16.1 99.93     LegendNANA
09:00 Legend Double Dagger 4.4 -0.4 71 28 9 16.1 99.94     LegendNANA
10:00 Legend Double Dagger 6.6 -1.8 55 22 26 16.1 99.93     LegendNANA
11:00 Legend Double Dagger 8.1 -3.2 45 24 26 16.1 99.92     LegendNANA
12:00 Legend Double Dagger 7.6 -3.2 46 23 21 16.1 99.87     LegendNANA
13:00 Legend Double Dagger 8.4 -4.5 40 23 35 16.1 99.83     LegendNANA
14:00 Legend Double Dagger 7.0 -5.7 40 26 28 16.1 99.83     LegendNANA
15:00 Legend Double Dagger 6.0 -5.2 45 25 26 16.1 99.88     LegendNANA
16:00 Legend Double Dagger 6.1 -5.3 44 25 22 16.1 99.91     LegendNANA
17:00 Legend Double Dagger 5.7 -4.2 49 24 13 16.1 99.93     LegendNANA
18:00 Legend Double Dagger 4.7 -2.7 59 19 8 16.1 99.97     LegendNANA
19:00 Legend Double Dagger 4.2 -1.8 65 20 9 16.1 99.99     LegendNANA
20:00 Legend Double Dagger 5.5 -3.0 55 25 18 16.1 100.03     LegendNANA
21:00 Legend Double Dagger 5.8 -2.8 54 23 24 16.1 100.06     LegendNANA
22:00 Legend Double Dagger 5.8 -2.4 56 24 18 16.1 100.08     LegendNANA
23:00 Legend Double Dagger 5.7 -2.3 57 24 18 16.1 100.11     LegendNANA

Notes on Data Quality.

Legend

  • E = Estimated
  • M = Missing
  • NA = Not Available
  • ‡ = Partner data that is not subject to review by the National Climate Archives
Date modified: